UAE49K VOBL-OMDB

Flight info

Callsign UAE49K
Flight time N/A
Altitude 38000
Route GUNIM8A GUNIM R461 OKILA P574 PAROK Q899 ITURA M762 VAXAS/N0418F240 M762 MIVEK P574 IMPED
Aircraft B77W/H-SDE1E2E3FGHIJ2J3J4J5M1RWXY/LB1D1

Departure

Time 2026-05-07 08:04
Airport Kempegowda International Airport Bengaluru (VOBL)

Arrival

Time N/A
Airport Dubai International Airport (OMDB)
Time Latitude Longitude Altitude Speed Heading
2026-05-07 07:45 13.20092 77.71837 3016 ft 0 kts 180°
2026-05-07 07:53 13.20116 77.71837 3016 ft 4 kts 178°
2026-05-07 07:53 13.20143 77.71836 3023 ft 4 kts 180°
2026-05-07 07:54 13.20169 77.71838 3021 ft 4 kts 204°
2026-05-07 07:54 13.20181 77.71849 3023 ft 1 kts 270°
2026-05-07 07:54 13.20181 77.71853 3026 ft 0 kts 270°
2026-05-07 07:56 13.20181 77.71848 3016 ft 3 kts 270°
2026-05-07 07:57 13.20199 77.71804 3016 ft 10 kts 317°
2026-05-07 07:57 13.20293 77.71789 3016 ft 19 kts 360°
2026-05-07 07:57 13.20403 77.71782 3016 ft 15 kts 339°
2026-05-07 07:57 13.20440 77.71686 3016 ft 15 kts 269°
2026-05-07 07:58 13.20438 77.71576 3016 ft 15 kts 273°
2026-05-07 07:58 13.20440 77.71551 3016 ft 6 kts 273°
2026-05-07 07:58 13.20442 77.71435 3016 ft 16 kts 270°
2026-05-07 07:58 13.20443 77.71356 3016 ft 11 kts 271°
2026-05-07 07:59 13.20506 77.71250 3016 ft 26 kts 301°
2026-05-07 07:59 13.20528 77.71034 3016 ft 31 kts 270°
2026-05-07 07:59 13.20529 77.70846 3016 ft 26 kts 270°
2026-05-07 07:59 13.20531 77.70665 3016 ft 24 kts 270°
2026-05-07 08:00 13.20532 77.70530 3016 ft 15 kts 271°
2026-05-07 08:00 13.20533 77.70418 3016 ft 17 kts 270°
2026-05-07 08:00 13.20534 77.70285 3016 ft 19 kts 270°
2026-05-07 08:00 13.20535 77.70148 3017 ft 19 kts 270°
2026-05-07 08:01 13.20537 77.70000 3016 ft 23 kts 270°
2026-05-07 08:01 13.20538 77.69826 3016 ft 26 kts 270°
2026-05-07 08:01 13.20539 77.69627 3016 ft 29 kts 270°
2026-05-07 08:01 13.20541 77.69434 3016 ft 24 kts 270°
2026-05-07 08:02 13.20543 77.69263 3016 ft 24 kts 270°
2026-05-07 08:02 13.20544 77.69092 3016 ft 24 kts 270°
2026-05-07 08:02 13.20546 77.68921 3016 ft 24 kts 270°
2026-05-07 08:02 13.20547 77.68767 3016 ft 19 kts 270°
2026-05-07 08:03 13.20549 77.68645 3016 ft 13 kts 284°
2026-05-07 08:03 13.20626 77.68617 3016 ft 13 kts 357°
2026-05-07 08:03 13.20705 77.68647 3016 ft 13 kts 54°
2026-05-07 08:03 13.20720 77.68749 3016 ft 21 kts 86°
2026-05-07 08:04 13.20717 77.69012 3016 ft 68 kts 91°
2026-05-07 08:04 13.20707 77.69883 3017 ft 174 kts 91°
2026-05-07 08:04 13.20711 77.71325 3632 ft 214 kts 90°
2026-05-07 08:04 13.20715 77.72862 5187 ft 216 kts 90°
2026-05-07 08:05 13.21019 77.74406 5897 ft 239 kts 63°
2026-05-07 08:05 13.22124 77.75815 6292 ft 261 kts 49°
2026-05-07 08:05 13.22875 77.76851 6637 ft 273 kts 60°
2026-05-07 08:05 13.23828 77.78540 7474 ft 280 kts 59°
2026-05-07 08:06 13.24860 77.80264 8605 ft 279 kts 58°
2026-05-07 08:06 13.25914 77.81909 9610 ft 280 kts 52°
2026-05-07 08:06 13.27464 77.83162 10338 ft 294 kts 23°
2026-05-07 08:06 13.29548 77.83593 10673 ft 321 kts
2026-05-07 08:07 13.31876 77.83531 10838 ft 349 kts 352°
2026-05-07 08:07 13.34196 77.82570 11220 ft 369 kts 330°
2026-05-07 08:07 13.36435 77.81158 11843 ft 382 kts 330°
2026-05-07 08:07 13.38746 77.79763 12740 ft 388 kts 331°
2026-05-07 08:08 13.41033 77.78301 13604 ft 391 kts 322°
2026-05-07 08:08 13.42848 77.76225 14301 ft 400 kts 301°
2026-05-07 08:08 13.43931 77.73562 15199 ft 398 kts 286°
2026-05-07 08:08 13.44703 77.70810 15974 ft 403 kts 286°
2026-05-07 08:09 13.45506 77.68036 16806 ft 407 kts 287°
2026-05-07 08:09 13.46325 77.65241 17641 ft 411 kts 287°
2026-05-07 08:09 13.47160 77.62414 18450 ft 414 kts 287°
2026-05-07 08:09 13.48003 77.59575 19102 ft 419 kts 287°
2026-05-07 08:10 13.48859 77.56700 19706 ft 425 kts 287°
2026-05-07 08:10 13.49733 77.53766 20313 ft 431 kts 287°
2026-05-07 08:10 13.50616 77.50809 20934 ft 435 kts 287°
2026-05-07 08:10 13.51508 77.47820 21553 ft 440 kts 288°
2026-05-07 08:11 13.52412 77.44795 22148 ft 444 kts 288°
2026-05-07 08:11 13.53322 77.41744 22725 ft 449 kts 288°
2026-05-07 08:11 13.54244 77.38655 23288 ft 454 kts 288°
2026-05-07 08:11 13.55173 77.35541 23796 ft 458 kts 288°
2026-05-07 08:12 13.56112 77.32390 24267 ft 462 kts 288°
2026-05-07 08:12 13.57041 77.29267 24771 ft 464 kts 288°
2026-05-07 08:12 13.57985 77.26096 25266 ft 467 kts 288°
2026-05-07 08:12 13.58941 77.22881 25745 ft 471 kts 288°
2026-05-07 08:13 13.59903 77.19648 26209 ft 474 kts 288°
2026-05-07 08:13 13.60869 77.16398 26659 ft 477 kts 287°
2026-05-07 08:13 13.61843 77.13119 27119 ft 481 kts 287°
2026-05-07 08:13 13.62824 77.09815 27568 ft 484 kts 287°
2026-05-07 08:14 13.63808 77.06496 28001 ft 487 kts 287°
2026-05-07 08:14 13.64801 77.03146 28428 ft 491 kts 287°
2026-05-07 08:14 13.65798 76.99784 28840 ft 494 kts 287°
2026-05-07 08:14 13.66799 76.96404 29243 ft 496 kts 287°
2026-05-07 08:15 13.67808 76.92997 29626 ft 499 kts 287°
2026-05-07 08:15 13.68824 76.89561 29974 ft 502 kts 287°
2026-05-07 08:15 13.69844 76.86114 30265 ft 505 kts 287°
2026-05-07 08:15 13.70854 76.82697 30604 ft 506 kts 287°
2026-05-07 08:16 13.71875 76.79241 31067 ft 504 kts 287°
2026-05-07 08:16 13.72890 76.75801 31557 ft 501 kts 287°
2026-05-07 08:16 13.73903 76.72369 32051 ft 500 kts 287°
2026-05-07 08:16 13.74910 76.68954 32506 ft 498 kts 287°
2026-05-07 08:17 13.75913 76.65551 32968 ft 497 kts 287°
2026-05-07 08:17 13.76913 76.62156 33428 ft 496 kts 287°
2026-05-07 08:17 13.77912 76.58765 33890 ft 495 kts 287°
2026-05-07 08:17 13.78912 76.55367 34287 ft 493 kts 287°
2026-05-07 08:18 13.79905 76.51989 34699 ft 492 kts 287°
2026-05-07 08:18 13.80883 76.48663 35094 ft 490 kts 287°
2026-05-07 08:18 13.81868 76.45310 35501 ft 489 kts 287°
2026-05-07 08:18 13.82850 76.41968 35893 ft 487 kts 287°
2026-05-07 08:19 13.83830 76.38627 36266 ft 486 kts 286°
2026-05-07 08:19 13.84804 76.35305 36653 ft 485 kts 286°
2026-05-07 08:19 13.85779 76.31981 37024 ft 484 kts 286°
2026-05-07 08:19 13.86749 76.28671 37376 ft 483 kts 286°
2026-05-07 08:20 13.87716 76.25368 37724 ft 482 kts 286°
2026-05-07 08:20 13.88685 76.22055 37839 ft 486 kts 286°
2026-05-07 08:20 13.89662 76.18717 37887 ft 488 kts 286°
2026-05-07 08:21 13.91613 76.12043 37879 ft 484 kts 286°
2026-05-07 08:21 13.93541 76.05439 37887 ft 481 kts 286°
2026-05-07 08:22 13.95464 75.98845 37892 ft 481 kts 286°
2026-05-07 08:22 13.97388 75.92237 37894 ft 482 kts 286°
2026-05-07 08:23 13.99315 75.85615 37897 ft 483 kts 286°
2026-05-07 08:23 14.01245 75.78975 37901 ft 485 kts 286°
2026-05-07 08:24 14.03182 75.72303 37897 ft 486 kts 286°
2026-05-07 08:24 14.05118 75.65627 37902 ft 487 kts 286°
2026-05-07 08:25 14.07059 75.58939 37897 ft 488 kts 287°
2026-05-07 08:25 14.09758 75.52563 37895 ft 490 kts 299°
2026-05-07 08:26 14.15726 75.44008 37881 ft 491 kts 308°
2026-05-07 08:26 14.19986 75.38501 37878 ft 491 kts 308°
2026-05-07 08:27 14.24210 75.32973 37877 ft 490 kts 308°
2026-05-07 08:27 14.28383 75.27455 37872 ft 487 kts 308°
2026-05-07 08:28 14.32532 75.21952 37874 ft 484 kts 308°
2026-05-07 08:28 14.36654 75.16484 37870 ft 481 kts 308°
2026-05-07 08:29 14.40754 75.11044 37867 ft 479 kts 308°
2026-05-07 08:29 14.44836 75.05626 37864 ft 477 kts 308°
2026-05-07 08:30 14.48899 75.00228 37862 ft 476 kts 308°
2026-05-07 08:30 14.52928 74.94873 37857 ft 476 kts 308°
2026-05-07 08:31 14.56986 74.89474 37861 ft 477 kts 308°
2026-05-07 08:31 14.61057 74.84054 37856 ft 478 kts 307°
2026-05-07 08:32 14.65142 74.78611 37856 ft 480 kts 307°
2026-05-07 08:32 14.69240 74.73152 37849 ft 482 kts 307°
2026-05-07 08:33 14.73366 74.67688 37847 ft 483 kts 308°
2026-05-07 08:33 14.77504 74.62210 37842 ft 483 kts 307°
2026-05-07 08:34 14.81636 74.56729 37839 ft 483 kts 307°
2026-05-07 08:34 14.85766 74.51247 37832 ft 483 kts 307°
2026-05-07 08:35 14.89874 74.45753 37830 ft 482 kts 307°
2026-05-07 08:35 14.93951 74.40257 37823 ft 481 kts 307°
2026-05-07 08:36 14.98018 74.34774 37824 ft 480 kts 307°
2026-05-07 08:36 15.02084 74.29294 37820 ft 480 kts 307°
2026-05-07 08:37 15.06121 74.23851 37824 ft 479 kts 307°
2026-05-07 08:37 15.10177 74.18380 37818 ft 479 kts 306°
2026-05-07 08:38 15.14232 74.12905 37822 ft 480 kts 306°
2026-05-07 08:38 15.18296 74.07412 37814 ft 480 kts 306°
2026-05-07 08:39 15.22358 74.01918 37811 ft 481 kts 306°
2026-05-07 08:39 15.26427 73.96413 37804 ft 481 kts 306°
2026-05-07 08:40 15.30501 73.90896 37803 ft 482 kts 306°
2026-05-07 08:40 15.34573 73.85383 37803 ft 482 kts 307°
2026-05-07 08:41 15.39298 73.80508 37810 ft 485 kts 320°
2026-05-07 08:41 15.44973 73.76718 37805 ft 487 kts 329°
2026-05-07 08:42 15.50937 73.73374 37801 ft 488 kts 330°
2026-05-07 08:42 15.56904 73.70013 37801 ft 488 kts 329°
2026-05-07 08:43 15.62855 73.66600 37802 ft 488 kts 329°
2026-05-07 08:43 15.68800 73.63169 37804 ft 488 kts 329°
2026-05-07 08:44 15.71770 73.61455 37802 ft 488 kts 329°